Tracking 19909 objects as of 22-Oct-2019
HD Live streaming from Space Station
objects crossing your sky now

IRIDIUM 33 DEB

Track IRIDIUM 33 DEB now!
10-day predictions


NORAD ID: 34535
Int'l Code: 1997-051JC
Perigee: 628.4 km
Apogee: 652.9 km
Inclination: 86.3 °
Period: 97.4 minutes
Semi major axis: 7011 km
RCS: 0.032 m2 (small)
Launch date: September 14, 1997
Source: United States (US)
Launch site: TYURATAM MISSILE AND SPACE COMPLEX (TTMTR)

Note: This is SATELLITE DEBRIS
aabbcc
Your satellite tracking list
Your tracking list is empty




NASA's NSSDC Master Catalog

Two Line Element Set (TLE):
1 34535U 97051JC  19294.07198954  .00002491  00000-0  33571-3 0  9998
2 34535  86.3379 204.7258 0017484 291.2979  68.6375 14.78672299566781
Source of the keplerian elements: AFSPC